| time (UTC) | temp C | wind direction | speed KPH | gust KPH | rain 1hr cm | rain 24hr cm | rain mn cm | humidity % | barometer mb |
| 20260505041705 | 12 | 175 | 0.0 | 0.0 | 0.00 | 0.00 | 0.00 | 82 | 1007.0 |
| 20260505041203 | 12 | 175 | 0.0 | 0.0 | 0.00 | 0.00 | 0.00 | 82 | 1006.9 |
| 20260505040704 | 12 | 175 | 0.0 | 0.0 | 0.00 | 0.00 | 0.00 | 82 | 1007.0 |
| 20260505040203 | 12 | 175 | 0.0 | 0.0 | 0.00 | 0.00 | 0.00 | 82 | 1007.1 |
| 20260505035704 | 13 | 175 | 0.0 | 0.0 | 0.00 | 0.00 | 0.00 | 82 | 1007.1 |
| 20260505035204 | 13 | 175 | 0.0 | 0.0 | 0.00 | 0.00 | 0.00 | 82 | 1007.1 |
| 20260505034704 | 13 | 175 | 0.0 | 0.0 | 0.00 | 0.00 | 0.00 | 81 | 1007.0 |
| 20260505033657 | 13 | 175 | 0.0 | 0.0 | 0.00 | 0.00 | 0.00 | 81 | 1007.0 |
| 20260505033155 | 13 | 175 | 0.0 | 0.0 | 0.00 | 0.00 | 0.00 | 81 | 1007.1 |
| 20260505032656 | 13 | 175 | 0.0 | 0.0 | 0.00 | 0.00 | 0.00 | 81 | 1007.1 |
| 20260505032158 | 13 | 175 | 0.0 | 0.0 | 0.00 | 0.00 | 0.00 | 80 | 1007.1 |
| 20260505031655 | 13 | 175 | 0.0 | 0.0 | 0.00 | 0.00 | 0.00 | 80 | 1007.2 |
| 20260505031155 | 13 | 175 | 0.0 | 0.0 | 0.00 | 0.00 | 0.00 | 79 | 1007.2 |
| 20260505030655 | 13 | 175 | 0.0 | 0.0 | 0.00 | 0.00 | 0.00 | 80 | 1007.2 |
| 20260505030155 | 13 | 175 | 0.0 | 0.0 | 0.00 | 0.00 | 0.00 | 79 | 1007.1 |
| 20260505025655 | 13 | 175 | 0.0 | 0.0 | 0.00 | 0.00 | 0.00 | 79 | 1007.3 |
| 20260505025155 | 13 | 175 | 0.0 | 0.0 | 0.00 | 0.00 | 0.00 | 78 | 1007.3 |
| 20260505024656 | 13 | 175 | 0.0 | 1.6 | 0.00 | 0.00 | 0.00 | 79 | 1007.3 |
| 20260505024156 | 13 | 175 | 0.0 | 1.6 | 0.00 | 0.00 | 0.00 | 79 | 1007.4 |
| 20260505023655 | 13 | 175 | 0.0 | 1.6 | 0.00 | 0.00 | 0.00 | 78 | 1007.4 |
| 20260505023418 | 13 | 175 | 0.0 | 1.6 | 0.00 | 0.00 | 0.00 | 78 | 1007.6 |
| 20260505022655 | 13 | 175 | 0.0 | 3.2 | 0.00 | 0.00 | 0.00 | 78 | 1007.6 |
| 20260505022153 | 13 | 175 | 1.6 | 6.4 | 0.00 | 0.00 | 0.00 | 78 | 1007.6 |
| 20260505021652 | 13 | 175 | 1.6 | 6.4 | 0.00 | 0.00 | 0.00 | 78 | 1007.7 |
| 20260505021147 | 13 | 175 | 1.6 | 4.8 | 0.00 | 0.00 | 0.00 | 77 | 1007.7 |
| 20260505020907 | 13 | 175 | 3.2 | 6.4 | 0.00 | 0.00 | 0.00 | 77 | 1007.7 |
| 20260505020135 | 13 | 175 | 3.2 | 6.4 | 0.00 | 0.00 | 0.00 | 77 | 1007.7 |
| 20260505015632 | 13 | 175 | 3.2 | 9.7 | 0.00 | 0.00 | 0.00 | 78 | 1007.8 |
| 20260505015132 | 13 | 175 | 3.2 | 9.7 | 0.00 | 0.00 | 0.00 | 78 | 1007.8 |
| 20260505014632 | 13 | 159 | 3.2 | 8.0 | 0.00 | 0.00 | 0.00 | 78 | 1007.9 |
| 20260505014132 | 13 | 155 | 3.2 | 8.0 | 0.00 | 0.00 | 0.00 | 79 | 1007.9 |
| 20260505013353 | 13 | 151 | 1.6 | 4.8 | 0.00 | 0.00 | 0.00 | 80 | 1007.9 |
| 20260505012632 | 13 | 151 | 1.6 | 8.0 | 0.00 | 0.00 | 0.00 | 81 | 1007.9 |
| 20260505012131 | 13 | 151 | 3.2 | 8.0 | 0.00 | 0.00 | 0.00 | 81 | 1008.0 |
| 20260505011632 | 12 | 148 | 1.6 | 4.8 | 0.00 | 0.00 | 0.00 | 82 | 1008.1 |
| 20260505011132 | 12 | 141 | 1.6 | 6.4 | 0.00 | 0.00 | 0.00 | 82 | 1008.1 |
| 20260505010633 | 12 | 140 | 1.6 | 6.4 | 0.00 | 0.00 | 0.00 | 82 | 1008.1 |
| 20260505010134 | 12 | 140 | 1.6 | 4.8 | 0.00 | 0.00 | 0.00 | 81 | 1008.2 |
| 20260505005632 | 12 | 140 | 0.0 | 4.8 | 0.00 | 0.00 | 0.00 | 81 | 1008.2 |
| 20260505005132 | 12 | 140 | 0.0 | 0.0 | 0.00 | 0.00 | 0.00 | 81 | 1008.2 |
| 20260505004632 | 12 | 140 | 0.0 | 0.0 | 0.00 | 0.00 | 0.00 | 80 | 1008.2 |
| 20260505004132 | 12 | 140 | 0.0 | 0.0 | 0.00 | 0.00 | 0.00 | 79 | 1008.3 |
| 20260505003632 | 13 | 140 | 0.0 | 0.0 | 0.00 | 0.00 | 0.00 | 78 | 1008.4 |
| 20260505003132 | 13 | 140 | 0.0 | 0.0 | 0.00 | 0.00 | 0.00 | 78 | 1008.5 |
| 20260505002632 | 13 | 140 | 0.0 | 0.0 | 0.00 | 0.00 | 0.00 | 78 | 1008.5 |
| 20260505002133 | 13 | 140 | 0.0 | 0.0 | 0.00 | 0.00 | 0.00 | 78 | 1008.6 |
| 20260505001632 | 13 | 140 | 0.0 | 0.0 | 0.00 | 0.00 | 0.00 | 78 | 1008.6 |
| 20260505001132 | 13 | 140 | 0.0 | 0.0 | 0.00 | 0.00 | 0.00 | 78 | 1008.7 |
| 20260505000851 | 13 | 140 | 0.0 | 0.0 | 0.00 | 0.00 | 0.00 | 78 | 1008.7 |
| 20260505000131 | 13 | 140 | 0.0 | 0.0 | 0.00 | 0.00 | 0.00 | 78 | 1008.7 |
| 20260504235632 | 13 | 140 | 0.0 | 0.0 | 0.00 | 0.00 | 0.00 | 78 | 1008.8 |
| 20260504235132 | 13 | 140 | 0.0 | 0.0 | 0.00 | 0.00 | 0.00 | 78 | 1008.9 |
| 20260504234852 | 13 | 140 | 0.0 | 0.0 | 0.00 | 0.00 | 0.00 | 77 | 1008.8 |
| 20260504234132 | 13 | 140 | 0.0 | 0.0 | 0.00 | 0.00 | 0.00 | 77 | 1009.0 |
| 20260504233632 | 13 | 140 | 0.0 | 0.0 | 0.00 | 0.00 | 0.00 | 77 | 1009.1 |
| 20260504233132 | 14 | 140 | 0.0 | 0.0 | 0.00 | 0.00 | 0.00 | 76 | 1009.2 |
| 20260504232632 | 14 | 140 | 0.0 | 1.6 | 0.00 | 0.00 | 0.00 | 76 | 1009.3 |
| 20260504232133 | 14 | 140 | 0.0 | 3.2 | 0.00 | 0.00 | 0.00 | 75 | 1009.3 |
| 20260504231630 | 14 | 140 | 0.0 | 3.2 | 0.00 | 0.00 | 0.00 | 75 | 1009.4 |
| 20260504231125 | 14 | 140 | 0.0 | 1.6 | 0.00 | 0.00 | 0.00 | 75 | 1009.4 |
| 20260504230619 | 14 | 140 | 1.6 | 4.8 | 0.00 | 0.00 | 0.00 | 75 | 1009.5 |
| 20260504230336 | 13 | 140 | 3.2 | 6.4 | 0.00 | 0.00 | 0.00 | 76 | 1009.6 |
| 20260504225607 | 13 | 140 | 1.6 | 6.4 | 0.00 | 0.00 | 0.00 | 76 | 1009.6 |
| 20260504225108 | 13 | 140 | 1.6 | 4.8 | 0.00 | 0.00 | 0.00 | 76 | 1009.6 |
| 20260504224829 | 13 | 140 | 3.2 | 11.3 | 0.00 | 0.00 | 0.00 | 76 | 1009.6 |
| 20260504224106 | 13 | 140 | 4.8 | 11.3 | 0.00 | 0.00 | 0.00 | 76 | 1009.6 |
| 20260504223605 | 13 | 125 | 3.2 | 9.7 | 0.00 | 0.00 | 0.00 | 76 | 1009.6 |
| 20260504223106 | 13 | 101 | 1.6 | 6.4 | 0.00 | 0.00 | 0.00 | 76 | 1009.5 |
| 20260504222604 | 13 | 101 | 1.6 | 6.4 | 0.00 | 0.00 | 0.00 | 76 | 1009.4 |
| 20260504222104 | 13 | 101 | 0.0 | 0.0 | 0.00 | 0.00 | 0.00 | 76 | 1009.5 |
| 20260504221604 | 13 | 101 | 0.0 | 0.0 | 0.00 | 0.00 | 0.00 | 75 | 1009.5 |
| 20260504221104 | 13 | 101 | 0.0 | 0.0 | 0.00 | 0.00 | 0.00 | 75 | 1009.5 |
| 20260504220605 | 14 | 101 | 0.0 | 0.0 | 0.00 | 0.00 | 0.00 | 75 | 1009.5 |
| 20260504220104 | 14 | 101 | 0.0 | 0.0 | 0.00 | 0.00 | 0.00 | 74 | 1009.5 |
| 20260504215605 | 14 | 101 | 0.0 | 0.0 | 0.00 | 0.00 | 0.00 | 74 | 1009.6 |
| 20260504214607 | 14 | 101 | 1.6 | 3.2 | 0.00 | 0.00 | 0.00 | 74 | 1009.6 |
| 20260504214324 | 14 | 101 | 0.0 | 3.2 | 0.00 | 0.00 | 0.00 | 73 | 1009.6 |
| 20260504213605 | 14 | 101 | 0.0 | 3.2 | 0.00 | 0.00 | 0.00 | 73 | 1009.5 |
| 20260504213104 | 15 | 101 | 0.0 | 3.2 | 0.00 | 0.00 | 0.00 | 72 | 1009.6 |
| 20260504212834 | 15 | 101 | 0.0 | 3.2 | 0.00 | 0.00 | 0.00 | 71 | 1009.6 |
| 20260504212053 | 15 | 101 | 0.0 | 0.0 | 0.00 | 0.00 | 0.00 | 71 | 1009.7 |
| 20260504211549 | 15 | 101 | 0.0 | 0.0 | 0.00 | 0.00 | 0.00 | 71 | 1009.7 |
| 20260504211313 | 15 | 101 | 0.0 | 0.0 | 0.00 | 0.00 | 0.00 | 70 | 1009.9 |
| 20260504210810 | 15 | 101 | 0.0 | 1.6 | 0.00 | 0.00 | 0.00 | 69 | 1009.9 |
| 20260504210048 | 15 | 101 | 0.0 | 1.6 | 0.00 | 0.00 | 0.00 | 69 | 1009.9 |
| 20260504205557 | 15 | 101 | 0.0 | 1.6 | 0.00 | 0.00 | 0.00 | 69 | 1009.9 |
| 20260504205044 | 15 | 101 | 0.0 | 0.0 | 0.00 | 0.00 | 0.00 | 67 | 1010.0 |
| 20260504204542 | 15 | 101 | 0.0 | 0.0 | 0.00 | 0.00 | 0.00 | 67 | 1010.0 |
| 20260504204042 | 16 | 101 | 0.0 | 0.0 | 0.00 | 0.00 | 0.00 | 66 | 1010.0 |
| 20260504203542 | 16 | 101 | 0.0 | 1.6 | 0.00 | 0.00 | 0.00 | 65 | 1010.0 |
| 20260504203041 | 16 | 101 | 0.0 | 1.6 | 0.00 | 0.00 | 0.00 | 66 | 1010.0 |
| 20260504202542 | 16 | 101 | 0.0 | 0.0 | 0.00 | 0.00 | 0.00 | 67 | 1010.1 |
| 20260504202041 | 16 | 101 | 0.0 | 1.6 | 0.00 | 0.00 | 0.00 | 65 | 1010.1 |
| 20260504201542 | 16 | 101 | 0.0 | 1.6 | 0.00 | 0.00 | 0.00 | 65 | 1010.1 |
| 20260504201040 | 16 | 101 | 0.0 | 1.6 | 0.00 | 0.00 | 0.00 | 67 | 1010.1 |
| 20260504200538 | 16 | 101 | 1.6 | 3.2 | 0.00 | 0.00 | 0.00 | 65 | 1010.1 |
| 20260504200036 | 16 | 101 | 1.6 | 3.2 | 0.00 | 0.00 | 0.00 | 65 | 1010.1 |
| 20260504195535 | 16 | 101 | 1.6 | 3.2 | 0.00 | 0.00 | 0.00 | 67 | 1010.0 |
| 20260504195035 | 16 | 101 | 0.0 | 3.2 | 0.00 | 0.00 | 0.00 | 66 | 1010.0 |
| 20260504194534 | 16 | 101 | 1.6 | 3.2 | 0.00 | 0.00 | 0.00 | 66 | 1009.9 |
| 20260504194033 | 16 | 101 | 1.6 | 3.2 | 0.00 | 0.00 | 0.00 | 65 | 1009.9 |
| 20260504193530 | 16 | 101 | 0.0 | 3.2 | 0.00 | 0.00 | 0.00 | 65 | 1009.8 |
| 20260504193023 | 17 | 101 | 0.0 | 3.2 | 0.00 | 0.00 | 0.00 | 64 | 1009.8 |
| 20260504192518 | 17 | 101 | 0.0 | 0.0 | 0.00 | 0.00 | 0.00 | 63 | 1009.9 |
| 20260504192012 | 17 | 101 | 0.0 | 0.0 | 0.00 | 0.00 | 0.00 | 61 | 1009.8 |
| 20260504191505 | 17 | 101 | 0.0 | 0.0 | 0.00 | 0.00 | 0.00 | 59 | 1009.7 |
| 20260504191000 | 17 | 101 | 0.0 | 0.0 | 0.00 | 0.00 | 0.00 | 60 | 1009.7 |
| 20260504190456 | 18 | 101 | 0.0 | 1.6 | 0.00 | 0.00 | 0.00 | 59 | 1009.6 |
| 20260504185954 | 18 | 101 | 0.0 | 1.6 | 0.00 | 0.00 | 0.00 | 60 | 1009.6 |
| 20260504185454 | 18 | 101 | 0.0 | 3.2 | 0.00 | 0.00 | 0.00 | 58 | 1009.5 |
| 20260504184954 | 18 | 101 | 0.0 | 3.2 | 0.00 | 0.00 | 0.00 | 57 | 1009.5 |
| 20260504184454 | 18 | 101 | 1.6 | 3.2 | 0.00 | 0.00 | 0.00 | 56 | 1009.5 |
| 20260504183953 | 18 | 101 | 1.6 | 3.2 | 0.00 | 0.00 | 0.00 | 56 | 1009.5 |
| 20260504183454 | 19 | 101 | 0.0 | 1.6 | 0.00 | 0.00 | 0.00 | 58 | 1009.5 |
| 20260504183215 | 19 | 101 | 0.0 | 1.6 | 0.00 | 0.00 | 0.00 | 54 | 1009.4 |
| 20260504181950 | 19 | 101 | 0.0 | 3.2 | 0.00 | 0.00 | 0.00 | 53 | 1009.4 |
| 20260504181450 | 19 | 101 | 0.0 | 1.6 | 0.00 | 0.00 | 0.00 | 54 | 1009.4 |
| 20260504180949 | 19 | 101 | 1.6 | 3.2 | 0.00 | 0.00 | 0.00 | 54 | 1009.4 |
| 20260504180708 | 20 | 101 | 1.6 | 3.2 | 0.00 | 0.00 | 0.00 | 54 | 1009.4 |
| 20260504175946 | 20 | 101 | 0.0 | 3.2 | 0.00 | 0.00 | 0.00 | 54 | 1009.3 |
| 20260504175446 | 20 | 101 | 0.0 | 0.0 | 0.00 | 0.00 | 0.00 | 54 | 1009.3 |
| 20260504174946 | 20 | 101 | 0.0 | 0.0 | 0.00 | 0.00 | 0.00 | 53 | 1009.4 |
| 20260504174445 | 20 | 101 | 0.0 | 1.6 | 0.00 | 0.00 | 0.00 | 53 | 1009.4 |
| 20260504173445 | 20 | 101 | 1.6 | 3.2 | 0.00 | 0.00 | 0.00 | 52 | 1009.3 |
| 20260504172945 | 21 | 101 | 0.0 | 1.6 | 0.00 | 0.00 | 0.00 | 53 | 1009.4 |
| 20260504172445 | 21 | 101 | 0.0 | 1.6 | 0.00 | 0.00 | 0.00 | 53 | 1009.4 |
| 20260504171946 | 21 | 101 | 1.6 | 3.2 | 0.00 | 0.00 | 0.00 | 53 | 1009.5 |
| 20260504171446 | 21 | 101 | 1.6 | 6.4 | 0.00 | 0.00 | 0.00 | 52 | 1009.5 |
| 20260504170945 | 21 | 101 | 3.2 | 6.4 | 0.00 | 0.00 | 0.00 | 50 | 1009.5 |
| 20260504170442 | 21 | 100 | 3.2 | 9.7 | 0.00 | 0.00 | 0.00 | 50 | 1009.5 |
| 20260504160432 | 22 | 101 | 4.8 | 12.9 | 0.00 | 0.00 | 0.00 | 48 | 1009.7 |
| 20260504150931 | 22 | 63 | 4.8 | 12.9 | 0.00 | 0.00 | 0.00 | 48 | 1009.9 |
| 20260504150433 | 22 | 78 | 6.4 | 12.9 | 0.00 | 0.00 | 0.00 | 45 | 1009.9 |
| 20260504140932 | 22 | 83 | 3.2 | 9.7 | 0.00 | 0.00 | 0.00 | 46 | 1010.2 |
| 20260504140433 | 22 | 98 | 4.8 | 9.7 | 0.00 | 0.00 | 0.00 | 44 | 1010.2 |
| 20260504130410 | 22 | 69 | 3.2 | 8.0 | 0.00 | 0.00 | 0.00 | 45 | 1010.9 |
| 20260504130135 | 22 | 65 | 3.2 | 8.0 | 0.00 | 0.00 | 0.00 | 46 | 1011.0 |
| 20260504120126 | 21 | 49 | 4.8 | 8.0 | 0.00 | 0.00 | 0.00 | 46 | 1011.4 |
| 20260504110349 | 20 | 12 | 4.8 | 12.9 | 0.00 | 0.00 | 0.00 | 48 | 1011.9 |
| 20260504100341 | 20 | 5 | 3.2 | 8.0 | 0.00 | 0.00 | 0.00 | 48 | 1012.5 |
| 20260504100112 | 20 | 344 | 3.2 | 12.9 | 0.00 | 0.00 | 0.00 | 47 | 1012.6 |
| 20260504081837 | 18 | 350 | 4.8 | 12.9 | 0.00 | 0.00 | 0.00 | 51 | 1012.6 |
| 20260504081336 | 18 | 0 | 6.4 | 12.9 | 0.00 | 0.00 | 0.00 | 53 | 1012.6 |
| 20260504081059 | 18 | 25 | 4.8 | 12.9 | 0.00 | 0.00 | 0.00 | 53 | 1012.6 |
| 20260504080334 | 18 | 12 | 3.2 | 11.3 | 0.00 | 0.00 | 0.00 | 56 | 1012.6 |
| 20260504070308 | 16 | 22 | 4.8 | 11.3 | 0.00 | 0.00 | 0.00 | 57 | 1012.2 |
| 20260504050304 | 11 | 167 | 0.0 | 0.0 | 0.00 | 0.00 | 0.00 | 76 | 1011.9 |
| 20260504045804 | 11 | 167 | 0.0 | 0.0 | 0.00 | 0.00 | 0.00 | 76 | 1011.9 |
| 20260504045529 | 11 | 166 | 0.0 | 0.0 | 0.00 | 0.00 | 0.00 | 75 | 1011.9 |